"Pseudo-MPEC" for C11ET15

Created 2025 Feb 7 5:31:05 UT using Find_Orb

Click here for an explanation of pseudo-MPECs

 
 Astrometry: 
     C11ET15* C2025 02 04.42677110 10 05.668+49 51 00.54   ~24B2 22.42GVNEOCPV00
     C11ET15  C2025 02 04.43238010 10 10.132+49 50 56.04   ~24B2 23.17GVNEOCPV00
     C11ET15  C2025 02 04.43799410 10 14.408+49 50 52.15   ~24B2 22.49GVNEOCPV00
     C11ET15  C2025 02 04.44361110 10 18.980+49 50 48.37   ~24B2 22.85GVNEOCPV00

Station data:
(V00) Kitt Peak-Bok  (N31.963125 W111.600190)  US/Arizona.  Observers T. A.
   Pruyne, B. M. Africano, E. J. Christensen, G. A. Farneth, D. C. Fuls, A.
   R. Gibbs, A. D. Grauer, H. Gröller, J. A. Johnson, R. A. Kowalski, S. M.
   Larson, G. J. Leonard, D. Rankin, R. L. Seaman, F. C. Shelly, K. W.
   Wierzchoś. 2.25-m reflector + 4x4K mosaic CCD.

Orbital elements:  C11ET15
   Perihelion 2025 Jan 3.05759 +/- 31.9 TT =  1:22:55 (JD 2460678.55759)
Epoch 2025 Feb  4.0 TT = JDT 2460710.5   Earth MOID: 0.0118      AutoNEOCP
M  11.01937782 +/- 15               (J2000 ecliptic)
n   0.34497637 +/- 0.275            Peri.  328.65873 +/- 80
a   2.01346064 +/- 1.07             Node   126.79929 +/- 70
e   0.5283573 +/- 0.248             Incl.   12.37721 +/- 6
P   2.85703                H 27.69  G  0.15   U 11.9  SR
q 0.94963386 +/- 0.107    Q 3.07728742 +/- 9.94
From 4 observations 2025 Feb. 4 (24.2 min); mean residual 0".44
Residuals in arcseconds: 
250204 V00  .00   .26+    250204 V00  .94-  .16-    
250204 V00  .47+  .32-    250204 V00  .47+  .21+    

Ephemerides (geocentric):
Date (UTC) HH   RA             Dec           delta  r     elong  mag " sig PA
---- --------  ------------   ------------  ------ ------ -----  --- --------
2025 02 07 06  10 40 44.116   +49 15 04.61  .07680 1.0483 142.6 23.7  36d  46
2025 02 07 07  10 41 04.189   +49 14 26.63  .07707 1.0485 142.5 23.7  37d  46
2025 02 07 08  10 41 24.106   +49 13 48.59  .07734 1.0488 142.5 23.7  37d  46
2025 02 07 09  10 41 43.868   +49 13 10.47  .07762 1.0490 142.5 23.7  37d  46
2025 02 07 10  10 42 03.477   +49 12 32.29  .07789 1.0492 142.5 23.7  38d  46
2025 02 07 11  10 42 22.935   +49 11 54.05  .07816 1.0494 142.5 23.7  38d  46
2025 02 07 12  10 42 42.242   +49 11 15.74  .07843 1.0496 142.5 23.7  38d  46
2025 02 07 13  10 43 01.400   +49 10 37.38  .07870 1.0498 142.4 23.7  38d  46
2025 02 07 14  10 43 20.411   +49 09 58.96  .07897 1.0501 142.4 23.7  39d  46
2025 02 07 15  10 43 39.276   +49 09 20.49  .07925 1.0503 142.4 23.7  39d  46
2025 02 07 16  10 43 57.997   +49 08 41.97  .07952 1.0505 142.4 23.7  39d  46
2025 02 07 17  10 44 16.575   +49 08 03.40  .07979 1.0507 142.4 23.7  39d  46
2025 02 07 18  10 44 35.011   +49 07 24.79  .08006 1.0509 142.4 23.8  39d  46
2025 02 07 19  10 44 53.307   +49 06 46.13  .08034 1.0511 142.4 23.8  39d  46
2025 02 07 20  10 45 11.465   +49 06 07.44  .08061 1.0514 142.3 23.8  40d  46
2025 02 07 21  10 45 29.485   +49 05 28.71  .08088 1.0516 142.3 23.8  40d  46
2025 02 07 22  10 45 47.369   +49 04 49.94  .08115 1.0518 142.3 23.8  40d  46
2025 02 07 23  10 46 05.118   +49 04 11.14  .08143 1.0520 142.3 23.8  40d  46
2025 02 08 00  10 46 22.734   +49 03 32.31  .08170 1.0522 142.3 23.8  40d  46
2025 02 08 01  10 46 40.217   +49 02 53.45  .08197 1.0524 142.3 23.8  40d  46
2025 02 08 02  10 46 57.570   +49 02 14.56  .08225 1.0527 142.2 23.8  40d  46
2025 02 08 03  10 47 14.793   +49 01 35.65  .08252 1.0529 142.2 23.8  41d  46
2025 02 08 04  10 47 31.887   +49 00 56.72  .08279 1.0531 142.2 23.8  41d  46
2025 02 08 05  10 47 48.854   +49 00 17.76  .08307 1.0533 142.2 23.8  41d  46
2025 02 08 06  10 48 05.696   +48 59 38.78  .08334 1.0535 142.2 23.8  41d  46
2025 02 08 07  10 48 22.412   +48 58 59.79  .08361 1.0538 142.2 23.9  41d  46
2025 02 08 08  10 48 39.005   +48 58 20.78  .08389 1.0540 142.2 23.9  41d  46
2025 02 08 09  10 48 55.476   +48 57 41.76  .08416 1.0542 142.2 23.9  41d  46
2025 02 08 10  10 49 11.825   +48 57 02.73  .08444 1.0544 142.1 23.9  41d  46
2025 02 08 11  10 49 28.054   +48 56 23.68  .08471 1.0546 142.1 23.9  42d  46
2025 02 08 12  10 49 44.164   +48 55 44.62  .08498 1.0549 142.1 23.9  42d  46
2025 02 08 13  10 50 00.156   +48 55 05.56  .08526 1.0551 142.1 23.9  42d  46
2025 02 08 14  10 50 16.031   +48 54 26.49  .08553 1.0553 142.1 23.9  42d  46
2025 02 08 15  10 50 31.791   +48 53 47.42  .08581 1.0555 142.1 23.9  42d  46
2025 02 08 16  10 50 47.435   +48 53 08.34  .08608 1.0558 142.1 23.9  42d  46
2025 02 08 17  10 51 02.967   +48 52 29.26  .08636 1.0560 142.1 23.9  42d  46
2025 02 08 18  10 51 18.385   +48 51 50.18  .08663 1.0562 142.0 23.9  42d  46
2025 02 08 19  10 51 33.693   +48 51 11.10  .08691 1.0564 142.0 23.9  42d  46
2025 02 08 20  10 51 48.889   +48 50 32.02  .08718 1.0566 142.0 24.0  43d  46
2025 02 08 21  10 52 03.977   +48 49 52.94  .08746 1.0569 142.0 24.0  43d  46
2025 02 08 22  10 52 18.955   +48 49 13.87  .08773 1.0571 142.0 24.0  43d  46
2025 02 08 23  10 52 33.827   +48 48 34.80  .08801 1.0573 142.0 24.0  43d  46
2025 02 09 00  10 52 48.591   +48 47 55.74  .08828 1.0575 142.0 24.0  43d  46
2025 02 09 01  10 53 03.250   +48 47 16.69  .08856 1.0578 142.0 24.0  43d  46
2025 02 09 02  10 53 17.805   +48 46 37.64  .08883 1.0580 142.0 24.0  43d  46
2025 02 09 03  10 53 32.256   +48 45 58.61  .08911 1.0582 141.9 24.0  44d  46
2025 02 09 04  10 53 46.604   +48 45 19.58  .08938 1.0584 141.9 24.0  44d  46
2025 02 09 05  10 54 00.850   +48 44 40.56  .08966 1.0586 141.9 24.0  44d  46